Home > Time Zones > World Clock > Weather > Iran > Tehran > Past weeks

Flag for Iran Weather past 2 weeks in Tehran, Iran

Now
66 °F

Partly sunny.


Feels Like: 66 °F
Forecast: 59 / 81 °F
Wind: 7 mph from Southeast

Location: Tehran-Mehrabad


UV Index: 7 (High)

Visibility: N/A


Pressure: 30.15 "Hg

Humidity: 30%

Dew point: 34 °F

Location of TehranLocation

Historic Weather in Tehran

°F

Tehran temperature yesterday

Maximum temperature yesterday: 79 °F (at 5:00 PM)
Minimum temperature yesterday: 57 °F (at 6:30 AM)
Average temperature yesterday: 70 °F

Past Weeks' High & Low Weather Summary

 TemperatureHumidityPressure
High79 °F (Apr 17, 5:00 PM)87% (Apr 3, 10:30 AM)30.30 "Hg (Apr 3, 10:30 AM)
Low39 °F (Apr 4, 2:30 AM)8% (Apr 12, 4:00 PM)29.83 "Hg (Apr 3, 9:30 AM)
Average62 °F33%30.05 "Hg
* Reported Apr 3 9:30 AM — Apr 18 10:00 AM, Tehran, Weather by CustomWeather, © 2014

Note: Actual official high and low records may vary slightly from our data, if they occured in-between our weather recording intervals... More about our weather records

Advertising

Historic Weather Conditions — Data for Previous 24 hours

 ConditionsComfort  
Time TempWeatherWind HumidityBarometerVisibility
10:00 AM
Apr 18
66 °FScattered clouds.9 mph28%30.15 "HgN/A
9:30 AM64 °FScattered clouds.7 mph30%30.15 "HgN/A
9:00 AM63 °FScattered clouds.7 mph30%30.15 "HgN/A
8:30 AM63 °FPartly sunny.9 mph32%30.15 "HgN/A
8:00 AM61 °FScattered clouds.7 mph31%30.12 "HgN/A
7:30 AM61 °FPassing clouds.5 mph31%30.12 "HgN/A
7:00 AM61 °FPassing clouds.5 mph31%30.12 "HgN/A
6:30 AM61 °FPassing clouds.5 mph34%30.09 "HgN/A
6:00 AM61 °FPassing clouds.5 mph34%30.09 "HgN/A
5:30 AM61 °FPassing clouds.5 mph34%30.09 "HgN/A
5:00 AM61 °FPassing clouds.No wind34%30.09 "HgN/A
4:30 AM63 °FPassing clouds.5 mph32%30.09 "HgN/A
4:00 AM63 °FPassing clouds.9 mph34%30.09 "HgN/A
3:30 AM66 °FPassing clouds.12 mph28%30.07 "HgN/A
3:00 AM68 °FPassing clouds.5 mph26%30.07 "HgN/A
2:30 AM68 °FPassing clouds.9 mph26%30.07 "HgN/A
2:00 AM68 °FPassing clouds.7 mph26%30.07 "HgN/A
1:30 AM64 °FPassing clouds.No wind32%30.07 "HgN/A
1:00 AM66 °FPassing clouds.7 mph28%30.07 "HgN/A
12:30 AM70 °FPassing clouds.7 mph27%30.07 "HgN/A
12:00 AM70 °FPassing clouds.7 mph27%30.07 "HgN/A
11:30 PM
Apr 17
70 °FPassing clouds.5 mph27%30.07 "HgN/A
11:00 PM70 °FPassing clouds.7 mph25%30.07 "HgN/A
10:30 PM70 °FPassing clouds.7 mph27%30.07 "HgN/A
9:30 PM72 °FPassing clouds.9 mph23%30.04 "HgN/A
9:00 PM72 °FScattered clouds.No wind23%30.04 "HgN/A
8:30 PM73 °FScattered clouds.7 mph20%30.04 "HgN/A
8:00 PM75 °FScattered clouds.12 mph16%30.01 "HgN/A
7:30 PM75 °FScattered clouds.14 mph16%30.01 "HgN/A
7:00 PM77 °FScattered clouds.12 mph13%30.01 "HgN/A
6:30 PM77 °FScattered clouds.16 mph14%30.01 "HgN/A
6:00 PM77 °FScattered clouds.12 mph15%30.01 "HgN/A
5:30 PM77 °FScattered clouds.14 mph15%30.01 "HgN/A
5:00 PM79 °FScattered clouds.14 mph13%30.01 "HgN/A
4:30 PM77 °FScattered clouds.12 mph14%30.01 "HgN/A
4:00 PM77 °FScattered clouds.5 mph17%30.01 "HgN/A
3:30 PM77 °FScattered clouds.7 mph15%30.01 "HgN/A
3:00 PM77 °FScattered clouds.12 mph15%30.01 "HgN/A
2:30 PM75 °FScattered clouds.7 mph18%30.04 "HgN/A
2:00 PM77 °FPassing clouds.5 mph15%30.04 "HgN/A
1:30 PM75 °FPassing clouds.7 mph19%30.04 "HgN/A
1:00 PM73 °FPassing clouds.12 mph20%30.07 "HgN/A
12:30 PM73 °FPassing clouds.12 mph20%30.07 "HgN/A
12:00 PM72 °FPassing clouds.14 mph22%30.07 "HgN/A
11:30 AM72 °FPassing clouds.14 mph22%30.07 "HgN/A
11:00 AM72 °FSunny.5 mph20%30.09 "Hg10 mi
Weather by CustomWeather, © 2014

See weather overview